Year,Month,Day,Hour,Minute,Value (Times are PST for temperature in C)
2012,11,10,00,00,3.30
2012,11,10,00,01,3.30
2012,11,10,00,02,3.30
2012,11,10,00,03,3.30
2012,11,10,00,04,3.30
2012,11,10,00,05,3.30
2012,11,10,00,06,3.30
2012,11,10,00,07,3.30
2012,11,10,00,08,3.30
2012,11,10,00,09,3.30
2012,11,10,00,10,3.30
2012,11,10,00,11,3.30
2012,11,10,00,12,3.30
2012,11,10,00,13,3.30
2012,11,10,00,14,3.30
2012,11,10,00,15,3.30
2012,11,10,00,16,3.20
2012,11,10,00,17,3.20
2012,11,10,00,18,3.20
2012,11,10,00,19,3.20
2012,11,10,00,20,3.20
2012,11,10,00,21,3.20
2012,11,10,00,22,3.30
2012,11,10,00,23,3.30
2012,11,10,00,24,3.30
2012,11,10,00,25,3.30
2012,11,10,00,26,3.30
2012,11,10,00,27,3.30
2012,11,10,00,28,3.40
2012,11,10,00,29,3.40
2012,11,10,00,30,3.40
2012,11,10,00,31,3.50
2012,11,10,00,32,3.50
2012,11,10,00,33,3.50
2012,11,10,00,34,3.60
2012,11,10,00,35,3.60
2012,11,10,00,36,3.60
2012,11,10,00,37,3.70
2012,11,10,00,38,3.70
2012,11,10,00,39,3.80
2012,11,10,00,40,3.90
2012,11,10,00,41,4.00
2012,11,10,00,42,4.00
2012,11,10,00,43,4.00
2012,11,10,00,44,4.10
2012,11,10,00,45,4.10
2012,11,10,00,46,4.20
2012,11,10,00,47,4.20
2012,11,10,00,48,4.30
2012,11,10,00,49,4.30
2012,11,10,00,50,4.40
2012,11,10,00,51,4.40
2012,11,10,00,52,4.50
2012,11,10,00,53,4.50
2012,11,10,00,54,4.60
2012,11,10,00,55,4.60
2012,11,10,00,56,4.60
2012,11,10,00,57,4.60
2012,11,10,00,58,4.60
2012,11,10,00,59,4.60
2012,11,10,01,00,4.60
2012,11,10,01,01,4.60
2012,11,10,01,02,4.70
2012,11,10,01,03,4.70
2012,11,10,01,04,4.70
2012,11,10,01,05,4.70
2012,11,10,01,06,4.70
2012,11,10,01,07,4.70
2012,11,10,01,08,4.60
2012,11,10,01,09,4.60
2012,11,10,01,10,4.60
2012,11,10,01,11,4.70
2012,11,10,01,12,4.70
2012,11,10,01,13,4.80
2012,11,10,01,14,4.80
2012,11,10,01,15,4.80
2012,11,10,01,16,4.80
2012,11,10,01,17,4.80
2012,11,10,01,18,4.80
2012,11,10,01,19,4.80
2012,11,10,01,20,4.90
2012,11,10,01,21,4.90
2012,11,10,01,22,4.90
2012,11,10,01,23,4.90
2012,11,10,01,24,4.80
2012,11,10,01,25,4.80
2012,11,10,01,26,4.80
2012,11,10,01,27,4.80
2012,11,10,01,28,4.80
2012,11,10,01,29,4.80
2012,11,10,01,30,4.80
2012,11,10,01,31,4.90
2012,11,10,01,32,4.90
2012,11,10,01,33,4.90
2012,11,10,01,34,4.90
2012,11,10,01,35,4.90
2012,11,10,01,36,4.90
2012,11,10,01,37,5.00
2012,11,10,01,38,5.10
2012,11,10,01,39,5.10
2012,11,10,01,40,5.10
2012,11,10,01,41,5.10
2012,11,10,01,42,5.10
2012,11,10,01,43,5.10
2012,11,10,01,44,4.90
2012,11,10,01,45,5.00
2012,11,10,01,46,5.10
2012,11,10,01,47,5.10
2012,11,10,01,48,5.10
2012,11,10,01,49,5.10
2012,11,10,01,50,5.10
2012,11,10,01,51,5.10
2012,11,10,01,52,4.90
2012,11,10,01,53,4.90
2012,11,10,01,54,4.90
2012,11,10,01,55,4.90
2012,11,10,01,56,4.90
2012,11,10,01,57,4.90
2012,11,10,01,58,4.90
2012,11,10,01,59,4.90
2012,11,10,02,00,4.90
2012,11,10,02,01,4.90
2012,11,10,02,02,4.90
2012,11,10,02,03,4.90
2012,11,10,02,04,4.90
2012,11,10,02,05,4.90
2012,11,10,02,06,4.90
2012,11,10,02,07,4.90
2012,11,10,02,08,4.90
2012,11,10,02,09,4.90
2012,11,10,02,10,4.90
2012,11,10,02,11,4.90
2012,11,10,02,12,4.90
2012,11,10,02,13,4.90
2012,11,10,02,14,4.90
2012,11,10,02,15,4.90
2012,11,10,02,16,4.90
2012,11,10,02,17,4.80
2012,11,10,02,18,4.80
2012,11,10,02,19,4.80
2012,11,10,02,20,4.80
2012,11,10,02,21,4.70
2012,11,10,02,22,4.70
2012,11,10,02,23,4.70
2012,11,10,02,24,4.70
2012,11,10,02,25,4.70
2012,11,10,02,26,4.70
2012,11,10,02,27,4.70
2012,11,10,02,28,4.70
2012,11,10,02,29,4.70
2012,11,10,02,30,4.70
2012,11,10,02,31,4.70
2012,11,10,02,32,4.70
2012,11,10,02,33,4.70
2012,11,10,02,34,4.70
2012,11,10,02,35,4.70
2012,11,10,02,36,4.60
2012,11,10,02,37,4.60
2012,11,10,02,38,4.60
2012,11,10,02,39,4.60
2012,11,10,02,40,4.60
2012,11,10,02,41,4.60
2012,11,10,02,42,4.60
2012,11,10,02,43,4.60
2012,11,10,02,44,4.60
2012,11,10,02,45,4.60
2012,11,10,02,46,4.60
2012,11,10,02,47,4.60
2012,11,10,02,48,4.60
2012,11,10,02,49,4.60
2012,11,10,02,50,4.50
2012,11,10,02,51,4.50
2012,11,10,02,52,4.50
2012,11,10,02,53,4.50
2012,11,10,02,54,4.50
2012,11,10,02,55,4.50
2012,11,10,02,56,4.50
2012,11,10,02,57,4.50
2012,11,10,02,58,4.50
2012,11,10,02,59,4.50
2012,11,10,03,00,4.50
2012,11,10,03,01,4.50
2012,11,10,03,02,4.50
2012,11,10,03,03,4.50
2012,11,10,03,04,4.40
2012,11,10,03,05,4.40
2012,11,10,03,06,4.40
2012,11,10,03,07,4.40
2012,11,10,03,08,4.40
2012,11,10,03,09,4.30
2012,11,10,03,10,4.30
2012,11,10,03,11,4.30
2012,11,10,03,12,4.30
2012,11,10,03,13,4.30
2012,11,10,03,14,4.30
2012,11,10,03,15,4.30
2012,11,10,03,16,4.30
2012,11,10,03,17,4.30
2012,11,10,03,18,4.30
2012,11,10,03,19,4.30
2012,11,10,03,20,4.30
2012,11,10,03,21,4.30
2012,11,10,03,22,4.30
2012,11,10,03,23,4.30
2012,11,10,07,37,-0.70
2012,11,10,07,38,-0.70
2012,11,10,07,39,-0.70
2012,11,10,07,40,-0.70
2012,11,10,07,41,-0.70
2012,11,10,07,42,-0.70
2012,11,10,07,43,-0.70
2012,11,10,07,44,-0.70
2012,11,10,07,45,-0.70
2012,11,10,07,46,-0.70
2012,11,10,07,47,-0.70
2012,11,10,07,48,-0.70
2012,11,10,07,49,-0.70
2012,11,10,07,50,-0.70
2012,11,10,07,51,-0.60
2012,11,10,07,52,-0.60
2012,11,10,07,53,-0.60
2012,11,10,07,54,-0.60
2012,11,10,07,55,-0.50
2012,11,10,07,56,-0.40
2012,11,10,07,57,-0.40
2012,11,10,07,58,-0.40
2012,11,10,07,59,-0.30
2012,11,10,08,00,-0.30
2012,11,10,08,01,-0.20
2012,11,10,08,02,-0.20
2012,11,10,08,03,-0.10
2012,11,10,08,04,0.00
2012,11,10,08,05,0.10
2012,11,10,08,06,0.10
2012,11,10,08,07,0.10
2012,11,10,08,08,0.20
2012,11,10,08,09,0.20
2012,11,10,08,10,0.30
2012,11,10,08,11,0.40
2012,11,10,08,12,0.60
2012,11,10,08,13,0.70
2012,11,10,08,14,0.80
2012,11,10,08,15,0.90
2012,11,10,08,16,0.90
2012,11,10,08,17,0.90
2012,11,10,08,18,0.90
2012,11,10,08,19,0.80
2012,11,10,08,20,0.60
2012,11,10,08,21,0.50
2012,11,10,08,22,0.40
2012,11,10,08,23,0.40
2012,11,10,08,24,0.30
2012,11,10,08,25,0.20
2012,11,10,08,26,0.10
2012,11,10,08,27,0.10
2012,11,10,08,28,0.10
2012,11,10,08,29,0.00
2012,11,10,08,30,-0.10
2012,11,10,08,31,-0.10
2012,11,10,08,32,-0.10
2012,11,10,08,33,0.00
2012,11,10,08,34,0.10
2012,11,10,08,35,0.10
2012,11,10,08,36,0.10
2012,11,10,08,37,0.10
2012,11,10,08,38,0.20
2012,11,10,08,39,0.20
2012,11,10,08,40,0.30
2012,11,10,08,41,0.30
2012,11,10,08,42,0.40
2012,11,10,08,43,0.40
2012,11,10,08,44,0.50
2012,11,10,08,45,0.60
2012,11,10,08,46,0.60
2012,11,10,08,47,0.80
2012,11,10,08,48,0.90
2012,11,10,08,49,1.10
2012,11,10,08,50,1.20
2012,11,10,08,51,1.40
2012,11,10,08,52,1.50
2012,11,10,08,53,1.60
2012,11,10,08,54,1.80
2012,11,10,08,55,1.90
2012,11,10,08,56,2.00
2012,11,10,08,57,2.10
2012,11,10,08,58,2.20
2012,11,10,08,59,2.40
2012,11,10,09,00,2.60
2012,11,10,09,01,2.70
2012,11,10,09,02,2.80
2012,11,10,09,03,2.90
2012,11,10,09,04,3.10
2012,11,10,09,05,3.20
2012,11,10,09,06,3.30
2012,11,10,09,07,3.40
2012,11,10,09,08,3.50
2012,11,10,09,09,3.60
2012,11,10,09,10,3.70
2012,11,10,09,11,3.80
2012,11,10,09,12,3.80
2012,11,10,09,13,3.90
2012,11,10,09,14,3.90
2012,11,10,09,15,4.00
2012,11,10,09,16,4.00
2012,11,10,09,17,4.10
2012,11,10,09,18,4.10
2012,11,10,09,19,4.10
2012,11,10,09,20,4.20
2012,11,10,09,21,4.20
2012,11,10,09,22,4.20
2012,11,10,09,23,4.20
2012,11,10,09,24,4.30
2012,11,10,09,25,4.30
2012,11,10,09,26,4.40
2012,11,10,09,27,4.40
2012,11,10,09,28,4.40
2012,11,10,09,29,4.50
2012,11,10,09,30,4.50
2012,11,10,09,31,4.50
2012,11,10,09,32,4.50
2012,11,10,09,33,4.50
2012,11,10,09,34,4.50
2012,11,10,09,35,4.50
2012,11,10,09,36,4.50
2012,11,10,09,37,4.50
2012,11,10,09,38,4.40
2012,11,10,09,39,4.40
2012,11,10,09,40,4.40
2012,11,10,09,41,4.40
2012,11,10,09,42,4.40
2012,11,10,09,43,4.40
2012,11,10,09,44,4.40
2012,11,10,09,45,4.40
2012,11,10,09,46,4.40
2012,11,10,09,47,4.40
2012,11,10,09,48,4.40
2012,11,10,09,49,4.40
2012,11,10,09,50,4.40
2012,11,10,09,51,4.40
2012,11,10,09,52,4.40
2012,11,10,09,53,4.40
2012,11,10,09,54,4.40
2012,11,10,09,55,4.40
2012,11,10,09,56,4.50
2012,11,10,09,57,4.50
2012,11,10,09,58,4.60
2012,11,10,09,59,4.60
2012,11,10,10,00,4.70
2012,11,10,10,01,4.70
2012,11,10,10,02,4.80
2012,11,10,10,03,4.80
2012,11,10,10,04,4.90
2012,11,10,10,05,4.90
2012,11,10,10,06,4.90
2012,11,10,10,07,4.90
2012,11,10,10,08,4.90
2012,11,10,10,09,5.00
2012,11,10,10,10,5.10
2012,11,10,10,11,5.10
2012,11,10,10,12,5.10
2012,11,10,10,13,5.10
2012,11,10,10,14,5.10
2012,11,10,10,15,5.10
2012,11,10,10,16,5.10
2012,11,10,10,17,5.20
2012,11,10,10,18,5.20
2012,11,10,10,19,5.10
2012,11,10,10,20,5.10
2012,11,10,10,21,5.10
2012,11,10,10,22,5.10
2012,11,10,10,23,5.00
2012,11,10,10,24,4.90
2012,11,10,10,25,4.90
2012,11,10,10,26,4.90
2012,11,10,10,27,4.90
2012,11,10,10,28,4.90
2012,11,10,10,29,5.00
2012,11,10,10,30,5.10
2012,11,10,10,31,5.10
2012,11,10,10,32,5.10
2012,11,10,10,33,5.10
2012,11,10,10,34,5.10
2012,11,10,10,35,5.10
2012,11,10,10,36,5.10
2012,11,10,10,37,5.20
2012,11,10,10,38,5.20
2012,11,10,10,39,5.30
2012,11,10,10,40,5.30
2012,11,10,10,41,5.30
2012,11,10,10,42,5.30
2012,11,10,10,43,5.30
2012,11,10,10,44,5.30
2012,11,10,10,45,5.30
2012,11,10,10,46,5.30
2012,11,10,10,47,5.30
2012,11,10,10,48,5.20
2012,11,10,10,49,5.20
2012,11,10,10,50,5.10
2012,11,10,10,51,5.10
2012,11,10,10,52,5.10
2012,11,10,10,53,5.10
2012,11,10,10,54,5.10
2012,11,10,10,55,5.10
2012,11,10,10,56,5.10
2012,11,10,10,57,5.10
2012,11,10,10,58,5.10
2012,11,10,10,59,5.10
2012,11,10,11,00,5.10
2012,11,10,11,01,5.10
2012,11,10,11,02,5.10
2012,11,10,11,03,5.20
2012,11,10,11,04,5.20
2012,11,10,11,05,5.20
2012,11,10,11,06,5.10
2012,11,10,11,07,5.10
2012,11,10,11,08,5.10
2012,11,10,11,09,5.10
2012,11,10,11,10,5.10
2012,11,10,11,11,5.10
2012,11,10,11,12,5.10
2012,11,10,11,13,5.10
2012,11,10,11,14,5.10
2012,11,10,11,15,5.10
2012,11,10,11,16,5.10
2012,11,10,11,17,5.20
2012,11,10,11,18,5.20
2012,11,10,11,19,5.20
2012,11,10,11,20,5.20
2012,11,10,11,21,5.20
2012,11,10,11,22,5.20
2012,11,10,11,23,5.30
2012,11,10,11,24,5.30
2012,11,10,11,25,5.30
2012,11,10,11,26,5.30
2012,11,10,11,27,5.30
2012,11,10,11,28,5.40
2012,11,10,11,29,5.40
2012,11,10,11,30,5.40
2012,11,10,11,31,5.40
2012,11,10,11,32,5.40
2012,11,10,11,33,5.40
2012,11,10,11,34,5.50
2012,11,10,11,35,5.50
2012,11,10,11,36,5.50
2012,11,10,11,37,5.60
2012,11,10,11,38,5.70
2012,11,10,11,39,5.70
2012,11,10,11,40,5.70
2012,11,10,11,41,5.70
2012,11,10,11,42,5.70
2012,11,10,11,43,5.60
2012,11,10,11,44,5.50
2012,11,10,11,45,5.50
2012,11,10,11,46,5.50
2012,11,10,11,47,5.60
2012,11,10,11,48,5.60
2012,11,10,11,49,5.70
2012,11,10,11,50,5.70
2012,11,10,11,51,5.60
2012,11,10,11,52,5.60
2012,11,10,11,53,5.50
2012,11,10,11,54,5.50
2012,11,10,11,55,5.50
2012,11,10,11,56,5.60
2012,11,10,11,57,5.60
2012,11,10,11,58,5.70
2012,11,10,11,59,5.60
2012,11,10,12,00,5.60
2012,11,10,12,01,5.60
2012,11,10,12,02,5.70
2012,11,10,12,03,5.70
2012,11,10,12,04,5.70
2012,11,10,12,05,5.70
2012,11,10,12,06,5.70
2012,11,10,12,07,5.70
2012,11,10,12,08,5.80
2012,11,10,12,09,5.80
2012,11,10,12,10,5.80
2012,11,10,12,11,5.80
2012,11,10,12,12,5.80
2012,11,10,12,13,5.70
2012,11,10,12,14,5.70
2012,11,10,12,15,5.70
2012,11,10,12,16,5.70
2012,11,10,12,17,5.70
2012,11,10,12,18,5.70
2012,11,10,12,19,5.70
2012,11,10,12,20,5.70
2012,11,10,12,21,5.70
2012,11,10,12,22,5.70
2012,11,10,12,23,5.70
2012,11,10,12,24,5.70
2012,11,10,12,25,5.70
2012,11,10,12,26,5.70
2012,11,10,12,27,5.70
2012,11,10,12,28,5.70
2012,11,10,12,29,5.70
2012,11,10,12,30,5.70
2012,11,10,12,31,5.70
2012,11,10,12,32,5.70
2012,11,10,12,33,5.80
2012,11,10,12,34,5.80
2012,11,10,12,35,5.80
2012,11,10,12,36,5.80
2012,11,10,12,37,5.80
2012,11,10,12,38,5.80
2012,11,10,12,39,5.80
2012,11,10,12,40,5.80
2012,11,10,12,41,5.80
2012,11,10,12,42,5.80
2012,11,10,12,43,5.70
2012,11,10,12,44,5.70
2012,11,10,12,45,5.70
2012,11,10,12,46,5.80
2012,11,10,12,47,5.80
2012,11,10,12,48,5.80
2012,11,10,12,49,5.80
2012,11,10,12,50,5.80
2012,11,10,12,51,5.80
2012,11,10,12,52,5.70
2012,11,10,12,53,5.70
2012,11,10,12,54,5.80
2012,11,10,12,55,5.80
2012,11,10,12,56,5.90
2012,11,10,12,57,5.90
2012,11,10,12,58,6.00
2012,11,10,12,59,6.00
2012,11,10,13,00,5.90
2012,11,10,13,01,5.90
2012,11,10,13,02,5.90
2012,11,10,13,03,5.90
2012,11,10,13,04,5.90
2012,11,10,13,05,6.00
2012,11,10,13,06,6.00
2012,11,10,13,07,6.00
2012,11,10,13,08,6.00
2012,11,10,13,09,6.00
2012,11,10,13,10,6.10
2012,11,10,13,11,6.10
2012,11,10,13,12,6.10
2012,11,10,13,13,6.20
2012,11,10,13,14,6.20
2012,11,10,13,15,6.20
2012,11,10,13,16,6.20
2012,11,10,13,17,6.20
2012,11,10,13,18,6.20
2012,11,10,13,19,6.20
2012,11,10,13,20,6.20
2012,11,10,13,21,6.30
2012,11,10,13,22,6.30
2012,11,10,13,23,6.30
2012,11,10,13,24,6.30
2012,11,10,13,25,6.40
2012,11,10,13,26,6.30
2012,11,10,13,27,6.30
2012,11,10,13,28,6.30
2012,11,10,13,29,6.20
2012,11,10,13,30,6.20
2012,11,10,13,31,6.20
2012,11,10,13,32,6.10
2012,11,10,13,33,6.10
2012,11,10,13,34,6.10
2012,11,10,13,35,6.20
2012,11,10,13,36,6.20
2012,11,10,13,37,6.20
2012,11,10,13,38,6.20
2012,11,10,13,39,6.20
2012,11,10,13,40,6.20
2012,11,10,13,41,6.20
2012,11,10,13,42,6.30
2012,11,10,13,43,6.30
2012,11,10,13,44,6.40
2012,11,10,13,45,6.40
2012,11,10,13,46,6.50
2012,11,10,13,47,6.60
2012,11,10,13,48,6.60
2012,11,10,13,49,6.60
2012,11,10,13,50,6.60
2012,11,10,13,51,6.50
2012,11,10,13,52,6.40
2012,11,10,13,53,6.40
2012,11,10,13,54,6.40
2012,11,10,13,55,6.40
2012,11,10,13,56,6.40
2012,11,10,13,57,6.40
2012,11,10,13,58,6.40
2012,11,10,13,59,6.40
2012,11,10,14,00,6.40
2012,11,10,14,01,6.50
2012,11,10,14,02,6.60
2012,11,10,14,03,6.60
2012,11,10,14,04,6.60
2012,11,10,14,05,6.60
2012,11,10,14,06,6.50
2012,11,10,14,07,6.40
2012,11,10,14,08,6.40
2012,11,10,14,09,6.40
2012,11,10,14,10,6.40
2012,11,10,14,11,6.40
2012,11,10,14,12,6.40
2012,11,10,14,13,6.40
2012,11,10,14,14,6.40
2012,11,10,14,15,6.40
2012,11,10,14,16,6.40
2012,11,10,14,17,6.40
2012,11,10,14,18,6.40
2012,11,10,14,19,6.40
2012,11,10,14,20,6.40
2012,11,10,14,21,6.40
2012,11,10,14,22,6.40
2012,11,10,14,23,6.40
2012,11,10,14,24,6.40
2012,11,10,14,25,6.40
2012,11,10,14,26,6.30
2012,11,10,14,27,6.30
2012,11,10,14,28,6.20
2012,11,10,14,29,6.20
2012,11,10,14,30,6.20
2012,11,10,14,31,6.20
2012,11,10,14,32,6.20
2012,11,10,14,33,6.20
2012,11,10,14,34,6.20
2012,11,10,14,35,6.20
2012,11,10,14,36,6.20
2012,11,10,14,37,6.20
2012,11,10,14,38,6.20
2012,11,10,14,39,6.20
2012,11,10,14,40,6.20
2012,11,10,14,41,6.20
2012,11,10,14,42,6.20
2012,11,10,14,43,6.20
2012,11,10,14,44,6.20
2012,11,10,14,45,6.20
2012,11,10,14,46,6.20
2012,11,10,14,47,6.20
2012,11,10,14,48,6.20
2012,11,10,14,49,6.20
2012,11,10,14,50,6.20
2012,11,10,14,51,6.20
2012,11,10,14,52,6.30
2012,11,10,14,53,6.30
2012,11,10,14,54,6.30
2012,11,10,14,55,6.30
2012,11,10,14,56,6.30
2012,11,10,14,57,6.30
2012,11,10,14,58,6.30
2012,11,10,14,59,6.30
2012,11,10,15,00,6.30
2012,11,10,15,01,6.30
2012,11,10,15,02,6.30
2012,11,10,15,03,6.30
2012,11,10,15,04,6.30
2012,11,10,15,05,6.30
2012,11,10,15,06,6.20
2012,11,10,15,07,6.20
2012,11,10,15,08,6.20
2012,11,10,15,09,6.20
2012,11,10,15,10,6.20
2012,11,10,15,11,6.20
2012,11,10,15,12,6.20
2012,11,10,15,13,6.20
2012,11,10,15,14,6.20
2012,11,10,15,15,6.20
2012,11,10,15,16,6.20
2012,11,10,15,17,6.20
2012,11,10,15,18,6.20
2012,11,10,15,19,6.20
2012,11,10,15,20,6.20
2012,11,10,15,21,6.20
2012,11,10,15,22,6.20
2012,11,10,15,23,6.20
2012,11,10,15,24,6.20
2012,11,10,15,25,6.20
2012,11,10,15,26,6.20
2012,11,10,15,27,6.10
2012,11,10,15,28,6.10
2012,11,10,15,29,6.10
2012,11,10,15,30,6.10
2012,11,10,15,31,6.10
2012,11,10,15,32,6.10
2012,11,10,15,33,6.10
2012,11,10,15,34,6.10
2012,11,10,15,35,6.20
2012,11,10,15,36,6.20
2012,11,10,15,37,6.10
2012,11,10,15,38,6.10
2012,11,10,15,39,6.10
2012,11,10,15,40,6.10
2012,11,10,15,41,6.10
2012,11,10,15,42,6.10
2012,11,10,15,43,6.00
2012,11,10,15,44,6.00
2012,11,10,15,45,6.00
2012,11,10,15,46,6.00
2012,11,10,15,47,6.00
2012,11,10,15,48,6.00
2012,11,10,15,49,6.00
2012,11,10,15,50,6.00
2012,11,10,15,51,6.00
2012,11,10,15,52,6.00
2012,11,10,15,53,6.00
2012,11,10,15,54,6.00
2012,11,10,15,55,6.00
2012,11,10,15,56,6.00
2012,11,10,15,57,6.00
2012,11,10,15,58,6.00
2012,11,10,15,59,6.00
2012,11,10,16,00,6.00
2012,11,10,16,01,6.00
2012,11,10,16,02,5.90
2012,11,10,16,03,5.90
2012,11,10,16,04,5.90
2012,11,10,16,05,5.90
2012,11,10,16,06,5.90
2012,11,10,16,07,5.90
2012,11,10,16,08,5.90
2012,11,10,16,09,5.90
2012,11,10,16,10,5.90
2012,11,10,16,11,5.90
2012,11,10,16,12,5.90
2012,11,10,16,13,5.80
2012,11,10,16,14,5.80
2012,11,10,16,15,5.80
2012,11,10,16,16,5.80
2012,11,10,16,17,5.80
2012,11,10,16,18,5.70
2012,11,10,16,19,5.70
2012,11,10,16,20,5.70
2012,11,10,16,21,5.70
2012,11,10,16,22,5.70
2012,11,10,16,23,5.70
2012,11,10,16,24,5.70
2012,11,10,16,25,5.70
2012,11,10,16,26,5.60
2012,11,10,16,27,5.60
2012,11,10,16,28,5.60
2012,11,10,16,29,5.60
2012,11,10,16,30,5.50
2012,11,10,16,31,5.50
2012,11,10,16,32,5.40
2012,11,10,16,33,5.40
2012,11,10,16,34,5.30
2012,11,10,16,35,5.30
2012,11,10,16,36,5.30
2012,11,10,16,37,5.20
2012,11,10,16,38,5.10
2012,11,10,16,39,5.10
2012,11,10,16,40,4.90
2012,11,10,16,41,4.90
2012,11,10,16,42,4.80
2012,11,10,16,43,4.60
2012,11,10,16,44,4.60
2012,11,10,16,45,4.50
2012,11,10,16,46,4.40
2012,11,10,16,47,4.30
2012,11,10,16,48,4.30
2012,11,10,16,49,4.20
2012,11,10,16,50,4.20
2012,11,10,16,51,4.20
2012,11,10,16,52,4.20
2012,11,10,16,53,4.20
2012,11,10,16,54,4.20
2012,11,10,16,55,4.20
2012,11,10,16,56,4.20
2012,11,10,16,57,4.20
2012,11,10,16,58,4.20
2012,11,10,16,59,4.20
2012,11,10,17,00,4.20
2012,11,10,17,01,4.20
2012,11,10,17,02,4.20
2012,11,10,17,03,4.20
2012,11,10,17,04,4.20
2012,11,10,17,05,4.20
2012,11,10,17,06,4.20
2012,11,10,17,07,4.20
2012,11,10,17,08,4.10
2012,11,10,17,09,4.00
2012,11,10,17,10,4.00
2012,11,10,17,11,3.90
2012,11,10,17,12,3.90
2012,11,10,17,13,3.80
2012,11,10,17,14,3.80
2012,11,10,17,15,3.80
2012,11,10,17,16,3.70
2012,11,10,17,17,3.70
2012,11,10,17,18,3.70
2012,11,10,17,19,3.60
2012,11,10,17,20,3.60
2012,11,10,17,21,3.50
2012,11,10,17,22,3.50
2012,11,10,17,23,3.40
2012,11,10,17,24,3.40
2012,11,10,17,25,3.30
2012,11,10,17,26,3.30
2012,11,10,17,27,3.20
2012,11,10,17,28,3.20
2012,11,10,17,29,3.10
2012,11,10,17,30,3.10
2012,11,10,17,31,3.10
2012,11,10,17,32,3.10
2012,11,10,17,33,2.90
2012,11,10,17,34,2.90
2012,11,10,17,35,2.90
2012,11,10,17,36,2.90
2012,11,10,17,37,2.80
2012,11,10,17,38,2.70
2012,11,10,17,39,2.70
2012,11,10,17,40,2.60
2012,11,10,17,41,2.50
2012,11,10,17,42,2.50
2012,11,10,17,43,2.40
2012,11,10,17,44,2.40
2012,11,10,17,45,2.30
2012,11,10,17,46,2.30
2012,11,10,17,47,2.20
2012,11,10,17,48,2.20
2012,11,10,17,49,2.20
2012,11,10,17,50,2.20
2012,11,10,17,51,2.10
2012,11,10,17,52,2.10
2012,11,10,17,53,2.10
2012,11,10,17,54,2.00
2012,11,10,17,55,2.00
2012,11,10,17,56,2.00
2012,11,10,17,57,2.00
2012,11,10,17,58,2.00
2012,11,10,17,59,1.90
2012,11,10,18,00,1.90
2012,11,10,18,01,1.90
2012,11,10,18,02,1.90
2012,11,10,18,03,1.90
2012,11,10,18,04,1.80
2012,11,10,18,05,1.80
2012,11,10,18,06,1.80
2012,11,10,18,07,1.80
2012,11,10,18,08,1.80
2012,11,10,18,09,1.80
2012,11,10,18,10,1.80
2012,11,10,18,11,1.80
2012,11,10,18,12,1.70
2012,11,10,18,13,1.70
2012,11,10,18,14,1.70
2012,11,10,18,15,1.70
2012,11,10,18,16,1.60
2012,11,10,18,17,1.60
2012,11,10,18,18,1.60
2012,11,10,18,19,1.50
2012,11,10,18,20,1.50
2012,11,10,18,21,1.50
2012,11,10,18,22,1.50
2012,11,10,18,23,1.40
2012,11,10,18,24,1.40
2012,11,10,18,25,1.40
2012,11,10,18,26,1.40
2012,11,10,18,27,1.40
2012,11,10,18,28,1.30
2012,11,10,18,29,1.30
2012,11,10,18,30,1.30
2012,11,10,18,31,1.30
2012,11,10,18,32,1.30
2012,11,10,18,33,1.30
2012,11,10,18,34,1.30
2012,11,10,18,35,1.30
2012,11,10,18,36,1.30
2012,11,10,18,37,1.20
2012,11,10,18,38,1.20
2012,11,10,18,39,1.20
2012,11,10,18,40,1.20
2012,11,10,18,41,1.10
2012,11,10,18,42,1.10
2012,11,10,18,43,1.10
2012,11,10,18,44,1.00
2012,11,10,18,45,1.00
2012,11,10,18,46,1.00
2012,11,10,18,47,1.00
2012,11,10,18,48,0.90
2012,11,10,18,49,0.90
2012,11,10,18,50,0.90
2012,11,10,18,51,0.90
2012,11,10,18,52,0.90
2012,11,10,18,53,0.90
2012,11,10,18,54,0.90
2012,11,10,18,55,0.90
2012,11,10,18,56,0.80
2012,11,10,18,57,0.80
2012,11,10,18,58,0.80
2012,11,10,18,59,0.80
2012,11,10,19,00,0.80
2012,11,10,19,01,0.80
2012,11,10,19,02,0.80
2012,11,10,19,03,0.80
2012,11,10,19,04,0.70
2012,11,10,19,05,0.70
2012,11,10,19,06,0.80
2012,11,10,19,07,0.80
2012,11,10,19,08,0.80
2012,11,10,19,09,0.80
2012,11,10,19,10,0.80
2012,11,10,19,11,0.70
2012,11,10,19,12,0.70
2012,11,10,19,13,0.70
2012,11,10,19,14,0.70
2012,11,10,19,15,0.70
2012,11,10,19,16,0.70
2012,11,10,19,17,0.70
2012,11,10,19,18,0.60
2012,11,10,19,19,0.60
2012,11,10,19,20,0.60
2012,11,10,19,21,0.50
2012,11,10,19,22,0.50
2012,11,10,19,23,0.50
2012,11,10,19,24,0.40
2012,11,10,19,25,0.40
2012,11,10,19,26,0.40
2012,11,10,19,27,0.40
2012,11,10,19,28,0.40
2012,11,10,19,29,0.40
2012,11,10,19,30,0.30
2012,11,10,19,31,0.30
2012,11,10,19,32,0.30
2012,11,10,19,33,0.30
2012,11,10,19,34,0.20
2012,11,10,19,35,0.20
2012,11,10,19,36,0.20
2012,11,10,19,37,0.20
2012,11,10,19,38,0.20
2012,11,10,19,39,0.20
2012,11,10,19,40,0.10
2012,11,10,19,41,0.10
2012,11,10,19,42,0.10
2012,11,10,19,43,0.10
2012,11,10,19,44,0.10
2012,11,10,19,45,0.10
2012,11,10,19,46,0.10
2012,11,10,19,47,0.10
2012,11,10,19,48,0.10
2012,11,10,19,49,0.10
2012,11,10,19,50,0.10
2012,11,10,19,51,0.10
2012,11,10,19,52,0.00
2012,11,10,19,53,-0.10
2012,11,10,19,54,-0.10
2012,11,10,19,55,-0.10
2012,11,10,19,56,-0.10
2012,11,10,19,57,-0.10
2012,11,10,19,58,-0.10
2012,11,10,19,59,-0.10
2012,11,10,20,00,-0.10
2012,11,10,20,01,-0.10
2012,11,10,20,02,-0.20
2012,11,10,20,03,-0.20
2012,11,10,20,04,-0.20
2012,11,10,20,05,-0.20
2012,11,10,20,06,-0.20
2012,11,10,20,07,-0.20
2012,11,10,20,08,-0.20
2012,11,10,20,09,-0.20
2012,11,10,20,10,-0.20
2012,11,10,20,11,-0.20
2012,11,10,20,12,-0.30
2012,11,10,20,13,-0.30
2012,11,10,20,14,-0.30
2012,11,10,20,15,-0.30
2012,11,10,20,16,-0.40
2012,11,10,20,17,-0.40
2012,11,10,20,18,-0.40
2012,11,10,20,19,-0.40
2012,11,10,20,20,-0.40
2012,11,10,20,21,-0.40
2012,11,10,20,22,-0.40
2012,11,10,20,23,-0.40
2012,11,10,20,24,-0.50
2012,11,10,20,25,-0.60
2012,11,10,20,26,-0.60
2012,11,10,20,27,-0.60
2012,11,10,20,28,-0.60
2012,11,10,20,29,-0.60
2012,11,10,20,30,-0.70
2012,11,10,20,31,-0.70
2012,11,10,20,32,-0.70
2012,11,10,20,33,-0.70
2012,11,10,20,34,-0.70
2012,11,10,20,35,-0.70
2012,11,10,20,36,-0.70
2012,11,10,20,37,-0.70
2012,11,10,20,38,-0.70
2012,11,10,20,39,-0.70
2012,11,10,20,40,-0.70
2012,11,10,20,41,-0.80
2012,11,10,20,42,-0.80
2012,11,10,20,43,-0.80
2012,11,10,20,44,-0.80
2012,11,10,20,45,-0.80
2012,11,10,20,46,-0.80
2012,11,10,20,47,-0.80
2012,11,10,20,48,-0.90
2012,11,10,20,49,-0.80
2012,11,10,20,50,-0.80
2012,11,10,20,51,-0.80
2012,11,10,20,52,-0.80
2012,11,10,20,53,-0.80
2012,11,10,20,54,-0.80
2012,11,10,20,55,-0.80
2012,11,10,20,56,-0.80
2012,11,10,20,57,-0.80
2012,11,10,20,58,-0.90
2012,11,10,20,59,-0.90
2012,11,10,21,00,-0.90
2012,11,10,21,01,-0.90
2012,11,10,21,02,-0.90
2012,11,10,21,03,-0.90
2012,11,10,21,04,-0.90
2012,11,10,21,05,-0.90
2012,11,10,21,06,-1.00
2012,11,10,21,07,-1.10
2012,11,10,21,08,-1.10
2012,11,10,21,09,-1.10
2012,11,10,21,10,-1.10
2012,11,10,21,11,-1.10
2012,11,10,21,12,-1.10
2012,11,10,21,13,-1.10
2012,11,10,21,14,-1.10
2012,11,10,21,15,-1.10
2012,11,10,21,16,-1.10
2012,11,10,21,17,-1.10
2012,11,10,21,18,-1.00
2012,11,10,21,19,-0.90
2012,11,10,21,20,-0.80
2012,11,10,21,21,-0.70
2012,11,10,21,22,-0.60
2012,11,10,21,23,-0.60
2012,11,10,21,24,-0.60
2012,11,10,21,25,-0.60
2012,11,10,21,26,-0.60
2012,11,10,21,27,-0.60
2012,11,10,21,28,-0.60
2012,11,10,21,29,-0.60
2012,11,10,21,30,-0.70
2012,11,10,21,31,-0.70
2012,11,10,21,32,-0.80
2012,11,10,21,33,-0.80
2012,11,10,21,34,-0.80
2012,11,10,21,35,-0.90
2012,11,10,21,36,-0.90
2012,11,10,21,37,-0.90
2012,11,10,21,38,-0.90
2012,11,10,21,39,-0.90
2012,11,10,21,40,-0.90
2012,11,10,21,41,-0.90
2012,11,10,21,42,-0.90
2012,11,10,21,43,-0.90
2012,11,10,21,44,-0.90
2012,11,10,21,45,-0.90
2012,11,10,21,46,-0.90
2012,11,10,21,47,-0.90
2012,11,10,21,48,-0.90
2012,11,10,21,49,-0.90
2012,11,10,21,50,-0.90
2012,11,10,21,51,-0.80
2012,11,10,21,52,-0.80
2012,11,10,21,53,-0.70
2012,11,10,21,54,-0.60
2012,11,10,21,55,-0.50
2012,11,10,21,56,-0.40
2012,11,10,21,57,-0.40
2012,11,10,21,58,-0.40
2012,11,10,21,59,-0.40
2012,11,10,22,00,-0.40
2012,11,10,22,01,-0.40
2012,11,10,22,02,-0.50
2012,11,10,22,03,-0.60
2012,11,10,22,04,-0.60
2012,11,10,22,05,-0.70
2012,11,10,22,06,-0.70
2012,11,10,22,07,-0.70
2012,11,10,22,08,-0.80
2012,11,10,22,09,-0.80
2012,11,10,22,10,-0.80
2012,11,10,22,11,-0.80
2012,11,10,22,12,-0.80